Wind_Speed
8 8 7 7 10 11 12 12 13 14 17 20 20 21 22 25 25 26 28 28 28 28 29 30 31 31 31 32 33 34 33 32 32 31 30 29 28 28 27 28 27 28 28 28
7 6 7 10 12 12 11 12 14 16 18 20 22 22 22 22 23 25 27 28 28 28 30 31 32 32 33 33 34 36 36 35 33 32 31 31 30 30 30 30 30 29 29 28
7 6 10 12 12 11 12 12 13 15 18 20 21 21 20 20 20 22 24 26 28 29 30 30 32 33 33 34 35 36 37 36 34 33 32 32 32 32 32 31 31 31 30 30
9 10 12 11 10 11 12 12 14 16 17 18 19 20 21 21 20 21 23 25 26 27 28 30 31 32 33 34 35 36 36 35 35 34 34 34 34 34 34 33 33 33 32 31
9 11 12 11 11 12 11 11 13 13 14 16 17 19 20 20 21 21 22 22 24 25 26 28 30 31 32 33 34 35 35 36 35 35 35 35 35 35 35 35 35 34 33 33
10 11 12 11 11 11 10 10 11 12 14 17 18 19 20 21 20 22 22 22 23 24 25 27 28 29 31 32 32 32 33 34 35 35 36 36 35 36 36 36 36 34 34 33
8 10 12 12 11 9 9 8 10 13 14 15 15 18 20 21 21 21 21 22 23 23 24 26 26 28 29 30 31 32 33 34 35 35 36 36 35 36 36 36 35 35 35 34
9 11 12 11 10 8 9 10 11 13 14 14 15 17 20 19 21 22 21 22 22 23 24 25 26 27 28 29 30 31 32 33 34 35 35 35 35 36 36 37 36 35 35 35
10 10 10 11 10 9 8 10 12 14 14 15 16 17 17 20 20 21 21 21 22 22 23 24 26 27 28 28 29 30 31 32 33 34 35 35 35 36 36 37 36 35 35 35
12 11 9 10 9 8 8 9 10 12 14 15 16 18 20 18 18 18 18 19 20 21 21 23 25 26 27 28 28 29 30 32 32 33 34 35 35 36 36 35 35 35 35 35
12 11 9 8 8 8 10 10 11 12 12 13 17 19 21 19 20 20 18 19 20 22 23 24 26 27 28 29 30 30 31 32 32 33 34 35 35 35 35 35 34 34 34 34
13 12 11 10 10 10 10 10 11 12 12 13 16 20 20 20 22 21 21 21 22 23 25 26 26 27 28 30 31 31 32 33 33 34 34 34 35 34 34 34 34 34 34 34
15 13 12 10 12 9 10 11 11 12 13 14 15 20 20 21 22 22 23 23 24 25 26 27 28 28 28 30 31 31 31 31 31 32 32 32 33 33 33 33 33 33 33 33
15 13 11 9 8 7 8 10 11 12 13 15 18 20 21 22 22 22 23 25 26 27 28 28 29 29 28 29 29 29 29 29 30 29 29 29 30 31 31 31 31 32 32 31
14 12 10 8 8 7 8 10 12 14 16 17 20 21 22 22 23 23 25 26 27 27 27 28 28 28 27 27 26 26 27 27 26 26 26 26 26 27 28 28 28 28 28 27
12 11 10 8 7 7 9 11 12 14 16 19 20 22 22 23 24 25 26 27 27 27 27 27 27 26 25 25 24 24 24 24 23 23 23 23 23 22 23 23 24 23 23 23
11 11 10 9 8 9 11 12 13 15 17 19 20 22 23 23 24 26 27 27 27 26 26 26 25 24 23 23 23 22 21 21 21 21 20 20 20 21 21 20 20 20 20 20
11 10 9 8 8 9 12 13 14 17 18 19 21 22 22 23 24 26 26 26 25 25 25 24 23 22 21 20 20 20 20 19 18 17 18 18 17 17 17 18 18 18 18 18
10 10 9 9 8 9 14 13 15 17 18 19 20 22 23 23 24 25 25 25 25 24 22 22 21 20 19 18 18 18 18 17 16 15 16 16 16 16 15 15 15 15 16 16
10 9 9 8 8 11 13 13 15 18 19 20 21 22 23 23 24 24 24 24 22 21 19 19 18 17 16 15 15 15 15 14 13 13 14 14 14 13 12 12 13 13 13 13
10 9 9 9 9 12 13 15 17 18 20 21 22 22 22 23 23 24 24 22 20 18 17 16 15 14 13 13 12 11 11 11 11 11 11 11 11 11 11 11 12 11 11 11
9 9 9 9 9 12 13 16 16 17 20 21 21 21 22 22 23 23 22 20 18 16 15 14 12 11 10 10 10 9 9 8 8 8 8 8 8 9 9 9 9 9 10 10
10 10 10 10 10 12 14 15 17 18 19 20 21 21 21 21 21 21 20 18 16 14 13 11 9 9 8 8 9 9 8 7 7 7 7 7 7 7 8 8 8 9 9 9
10 10 10 10 11 12 13 15 16 17 19 20 20 21 21 21 20 19 18 16 14 12 11 9 8 8 8 7 7 7 6 6 5 6 6 6 6 7 7 8 8 8 8 9
11 10 10 10 10 12 13 15 16 17 18 19 20 20 21 20 19 18 16 14 12 11 9 9 8 7 7 6 7 7 5 5 5 5 5 6 6 6 7 7 7 7 8 8
10 9 9 10 10 12 13 14 15 16 17 18 19 20 20 19 18 17 15 13 11 9 9 8 7 6 6 6 5 5 5 5 5 5 5 5 5 5 5 6 6 6 6 6
Wind_Direction
213 219 223 228 232 230 232 239 245 248 255 265 265 261 259 260 264 263 262 260 258 256 253 253 254 255 256 257 260 262 262 264 263 268 271 274 276 277 278 279 280 281 281 281
212 224 228 233 241 243 239 240 242 251 251 262 265 266 263 263 264 263 262 261 260 257 256 255 255 256 256 257 260 262 263 265 266 268 272 274 275 277 278 279 279 280 281 282
211 228 239 242 246 248 248 250 247 252 257 266 269 268 268 267 263 266 262 261 260 258 257 256 254 255 256 257 259 260 262 265 265 268 270 272 273 274 276 277 278 279 279 280
223 230 245 251 253 254 253 254 253 254 260 267 269 269 272 271 269 270 266 262 261 260 259 258 256 257 258 259 259 261 263 264 266 268 268 271 274 275 275 276 276 276 277 276
230 243 251 251 252 255 251 253 261 265 265 264 266 266 273 270 273 273 270 265 262 263 261 259 258 260 261 261 261 263 264 265 266 268 270 271 274 274 275 275 276 277 276 275
216 243 253 256 258 259 257 259 264 272 271 267 264 264 272 274 275 274 273 272 270 268 264 262 262 263 263 263 264 264 264 264 266 268 270 271 273 273 275 276 277 276 276 276
235 251 256 256 262 263 261 269 276 281 281 278 268 263 268 274 282 281 279 276 275 271 267 265 265 266 265 265 265 264 264 265 266 267 268 269 271 273 273 275 276 275 274 275
253 256 257 257 258 256 263 268 272 280 289 293 278 265 271 276 281 281 284 286 280 274 269 266 266 268 267 267 266 265 264 265 265 266 267 269 269 271 272 274 275 274 274 274
238 252 259 268 261 248 256 269 278 285 292 291 287 279 277 282 287 282 284 286 282 279 275 269 269 270 270 271 269 267 265 264 265 266 267 268 268 270 272 273 273 272 272 272
225 236 242 257 266 258 262 271 274 280 289 292 292 291 291 291 295 285 284 286 287 285 279 274 272 272 271 270 269 269 267 266 266 268 269 269 269 270 272 272 272 271 271 271
226 230 232 241 258 260 274 276 279 279 282 289 299 297 295 294 297 299 297 294 290 287 284 281 278 276 274 272 270 270 270 269 268 269 270 271 271 273 272 272 272 271 272 272
227 225 223 229 242 253 262 271 279 283 283 283 285 292 296 297 299 302 302 298 294 290 287 285 283 280 277 276 274 274 273 272 271 271 272 272 272 272 272 271 270 272 272 271
226 226 222 230 238 247 269 272 277 283 284 290 290 292 297 298 300 302 302 300 297 294 290 288 287 284 283 281 278 277 276 275 274 273 272 273 272 271 270 270 269 271 270 270
227 229 231 246 261 251 272 284 288 291 291 291 289 290 295 299 300 302 302 301 300 297 293 290 290 288 286 284 282 280 279 278 276 275 274 273 273 271 270 268 269 269 269 268
229 232 237 250 271 276 282 287 288 290 292 294 295 298 300 303 302 302 302 302 301 299 297 294 291 289 289 287 284 282 280 280 278 275 275 275 273 272 271 269 269 268 266 264
231 236 243 250 266 278 286 294 296 294 294 296 297 300 304 306 306 304 303 303 302 300 298 295 293 290 289 288 285 283 283 282 280 277 276 276 273 273 272 268 267 267 266 267
232 232 238 247 263 278 288 292 298 300 301 302 302 304 308 308 307 306 305 303 302 301 299 297 295 294 291 288 287 287 286 285 283 280 279 277 273 269 270 270 268 266 269 267
232 234 244 258 266 271 284 292 299 301 302 306 307 309 312 310 309 309 308 306 304 302 300 298 296 294 292 289 290 289 287 287 284 282 280 278 278 276 275 272 273 270 268 267
238 244 249 259 271 276 286 294 300 304 308 312 312 314 315 313 312 313 312 310 308 305 302 301 299 297 294 293 291 290 287 287 285 284 285 281 278 275 276 273 272 270 266 266
245 250 256 265 275 280 292 305 309 310 312 316 317 317 317 316 315 317 316 314 310 308 306 304 301 299 296 296 295 292 290 288 285 285 286 285 282 277 276 274 273 273 270 271
244 252 260 272 277 284 301 306 310 312 316 318 320 320 319 319 320 320 320 319 317 312 309 306 304 301 299 301 298 298 296 293 289 290 288 285 284 282 283 281 280 279 279 281
242 252 262 268 274 285 299 305 310 315 318 319 322 322 322 321 321 321 322 321 322 320 315 310 307 305 304 303 298 300 300 301 298 296 294 289 288 290 290 293 294 294 291 288
236 248 260 269 280 292 302 307 313 317 321 323 325 326 326 325 325 326 326 326 325 324 322 318 315 312 308 305 307 307 305 304 300 297 297 295 294 299 302 304 303 304 300 298
238 252 264 273 284 298 306 311 313 317 322 326 329 331 332 332 332 332 332 331 330 328 328 326 323 320 318 317 318 319 316 310 305 305 308 307 304 303 302 304 304 309 310 309
236 244 262 275 290 302 310 315 318 322 326 331 334 335 336 336 337 337 337 338 337 336 335 335 331 328 324 320 322 325 325 322 321 320 314 316 318 313 310 309 306 305 309 312
239 246 263 280 294 305 314 320 325 329 333 336 338 339 340 341 343 344 344 344 345 344 345 345 343 342 342 338 337 337 337 338 338 335 333 331 332 334 332 329 325 319 319 322
Height
5805 5807 5808 5811 5813 5814 5816 5818 5820 5821 5820 5817 5817 5816 5816 5815 5815 5815 5814 5815 5817 5818 5820 5820 5820 5820 5822 5823 5824 5825 5825 5826 5826 5827 5827 5828 5829 5830 5829 5829 5829 5830 5830 5830
5804 5806 5808 5809 5810 5811 5812 5814 5816 5816 5815 5814 5812 5812 5811 5810 5810 5809 5809 5810 5811 5812 5813 5814 5814 5815 5817 5818 5819 5819 5820 5820 5821 5821 5822 5822 5823 5824 5824 5824 5824 5824 5824 5824
5802 5805 5806 5807 5807 5808 5809 5811 5811 5812 5810 5809 5808 5807 5805 5804 5803 5804 5804 5804 5804 5806 5807 5807 5808 5809 5810 5811 5812 5813 5814 5814 5814 5815 5815 5816 5817 5817 5817 5817 5817 5817 5818 5818
5801 5803 5803 5804 5805 5806 5806 5807 5807 5807 5806 5805 5805 5802 5801 5800 5799 5798 5798 5798 5799 5800 5801 5801 5802 5803 5804 5805 5805 5806 5806 5807 5807 5807 5808 5810 5810 5810 5810 5810 5809 5809 5810 5811
5800 5801 5801 5801 5802 5802 5802 5803 5803 5803 5802 5801 5800 5799 5798 5796 5794 5794 5793 5792 5793 5794 5795 5795 5796 5796 5797 5798 5799 5799 5800 5800 5800 5800 5801 5802 5802 5802 5802 5802 5802 5802 5802 5803
5797 5798 5798 5799 5799 5799 5799 5800 5800 5799 5798 5797 5796 5795 5794 5791 5791 5790 5789 5788 5788 5789 5790 5790 5790 5790 5791 5791 5792 5792 5793 5793 5793 5793 5794 5794 5795 5795 5795 5795 5795 5795 5795 5795
5793 5795 5795 5796 5796 5797 5797 5798 5797 5796 5794 5793 5792 5791 5789 5786 5786 5785 5784 5784 5783 5784 5784 5784 5785 5784 5784 5785 5785 5786 5786 5786 5786 5786 5787 5787 5787 5787 5788 5788 5788 5787 5787 5788
5792 5793 5793 5793 5794 5795 5795 5795 5795 5794 5792 5791 5790 5787 5784 5782 5781 5781 5781 5779 5779 5779 5779 5779 5779 5778 5778 5778 5778 5778 5778 5779 5779 5779 5779 5779 5780 5780 5780 5780 5780 5780 5780 5780
5790 5791 5790 5791 5791 5792 5793 5793 5792 5791 5789 5788 5785 5783 5780 5778 5777 5776 5777 5776 5775 5774 5774 5773 5773 5772 5772 5771 5771 5771 5771 5771 5771 5771 5771 5771 5772 5772 5772 5772 5772 5772 5772 5772
5787 5788 5789 5789 5789 5790 5791 5791 5790 5788 5787 5785 5784 5780 5777 5775 5775 5773 5772 5771 5770 5769 5769 5768 5767 5766 5766 5765 5764 5763 5763 5763 5763 5763 5763 5763 5763 5763 5763 5763 5763 5764 5764 5764
5784 5785 5787 5788 5788 5789 5789 5789 5787 5786 5785 5784 5781 5780 5775 5774 5772 5770 5768 5767 5766 5765 5764 5762 5761 5760 5759 5758 5757 5756 5756 5755 5755 5755 5755 5755 5754 5754 5754 5754 5754 5754 5755 5756
5781 5783 5783 5785 5786 5786 5786 5786 5785 5784 5782 5781 5779 5778 5772 5770 5769 5767 5765 5764 5762 5760 5758 5757 5755 5754 5752 5750 5749 5748 5748 5747 5747 5746 5746 5746 5746 5746 5746 5746 5746 5746 5747 5747
5779 5780 5781 5782 5783 5783 5783 5782 5782 5781 5779 5777 5776 5775 5769 5767 5765 5763 5761 5760 5757 5755 5753 5751 5749 5747 5745 5743 5741 5740 5739 5739 5738 5738 5738 5737 5737 5737 5738 5738 5738 5738 5739 5739
5776 5778 5779 5780 5778 5778 5780 5780 5779 5778 5776 5774 5772 5769 5767 5764 5761 5759 5757 5754 5752 5749 5747 5744 5742 5739 5737 5735 5734 5732 5732 5731 5730 5730 5729 5729 5729 5729 5729 5730 5730 5730 5731 5731
5774 5775 5776 5777 5777 5777 5778 5778 5777 5775 5773 5771 5768 5765 5763 5760 5757 5754 5752 5749 5746 5743 5740 5738 5735 5733 5730 5728 5726 5725 5725 5724 5723 5723 5722 5722 5722 5722 5722 5722 5723 5723 5723 5724
5772 5774 5775 5776 5776 5776 5776 5775 5774 5772 5769 5767 5764 5761 5759 5756 5753 5750 5747 5744 5740 5737 5734 5731 5728 5725 5723 5722 5720 5719 5718 5717 5716 5716 5716 5716 5715 5715 5715 5716 5716 5716 5717 5718
5770 5772 5773 5774 5774 5774 5774 5773 5771 5769 5766 5764 5760 5758 5754 5752 5748 5745 5742 5738 5734 5731 5728 5725 5722 5719 5717 5716 5715 5713 5712 5711 5711 5710 5710 5710 5710 5710 5710 5710 5710 5711 5711 5712
5769 5770 5771 5771 5772 5772 5772 5769 5768 5765 5762 5760 5757 5753 5750 5747 5743 5740 5736 5732 5729 5725 5722 5719 5716 5714 5712 5711 5710 5709 5708 5707 5706 5706 5706 5705 5705 5705 5705 5705 5705 5706 5706 5707
5767 5768 5769 5769 5769 5769 5767 5765 5764 5762 5759 5756 5753 5749 5746 5742 5738 5735 5730 5726 5723 5719 5716 5714 5711 5709 5708 5706 5705 5704 5703 5703 5702 5702 5701 5701 5701 5701 5701 5701 5701 5701 5702 5702
5766 5766 5767 5767 5767 5766 5764 5762 5761 5760 5756 5753 5749 5745 5742 5738 5734 5731 5726 5721 5717 5714 5711 5709 5707 5705 5703 5702 5701 5700 5700 5699 5699 5698 5698 5698 5698 5698 5698 5698 5698 5698 5698 5698
5764 5765 5765 5765 5765 5763 5762 5760 5759 5758 5755 5750 5746 5742 5738 5734 5730 5726 5721 5717 5713 5710 5707 5705 5703 5701 5700 5699 5698 5697 5697 5696 5696 5696 5695 5695 5695 5695 5695 5695 5695 5695 5695 5695
5762 5763 5764 5764 5763 5764 5760 5759 5757 5755 5750 5747 5743 5739 5735 5730 5726 5721 5717 5713 5709 5706 5704 5702 5700 5699 5698 5697 5696 5695 5694 5694 5694 5693 5693 5693 5693 5693 5692 5692 5692 5692 5692 5691
5760 5762 5762 5762 5763 5760 5758 5756 5754 5751 5748 5744 5740 5736 5731 5727 5722 5718 5714 5710 5707 5704 5702 5700 5698 5697 5696 5695 5694 5693 5692 5692 5692 5692 5691 5691 5691 5690 5690 5690 5690 5690 5689 5689
5758 5759 5760 5759 5759 5758 5756 5754 5752 5749 5745 5742 5737 5733 5729 5724 5720 5715 5711 5708 5705 5702 5700 5698 5697 5696 5695 5693 5693 5692 5691 5691 5690 5690 5690 5689 5689 5689 5689 5688 5688 5688 5687 5687
5756 5757 5757 5758 5757 5756 5754 5752 5749 5746 5743 5739 5735 5731 5726 5722 5717 5713 5709 5706 5703 5701 5699 5697 5696 5695 5693 5692 5692 5691 5690 5690 5689 5689 5689 5688 5688 5687 5687 5687 5686 5686 5685 5685
5754 5755 5757 5757 5756 5755 5753 5750 5747 5744 5741 5737 5733 5729 5724 5720 5715 5711 5708 5705 5702 5700 5698 5696 5695 5694 5693 5692 5691 5690 5690 5689 5689 5688 5688 5688 5687 5687 5686 5685 5685 5684 5684 5684